{"data":{"norad_id":61774,"epoch":"2026-09-22T19:39:48.828096Z","epoch_age_seconds":101739,"freshness":"FRESH","line1":"1 61774U 24199AR  26265.81931514  .00080740  00000+0  58821-3 0  9998","line2":"2 61774  97.2666 145.7011 0001255 264.1804  95.9317 15.73065513149756","mean_motion":15.73065513,"eccentricity":0.0001255,"inclination_deg":97.2666,"raan_deg":145.7011,"arg_perigee_deg":264.1804,"mean_anomaly_deg":95.9317,"bstar":0.00058821,"rev_number":14975,"period_min":91.541006277213,"perigee_km":349.29723045128,"apogee_km":350.98602838726,"semimajor_km":6728.2786294193,"source":"CELESTRAK","updated_at":"2026-09-23T09:00:21.034869Z"}}